#timestamp,LO_Frequency,Hit,Temp,Hum 
1480104015.6,286047011.1,N,0.0,0.0
1480104035.4,286047011.2,N,0.0,0.0
1480104055.2,286047011.4,N,0.0,0.0
1480104075.1,286047011.1,N,0.0,0.0
1480104076.0,286047011.1,N,0.0,0.0
1480104095.8,286047011.0,N,0.0,0.0
1480104115.6,286047013.5,N,0.0,0.0
1480104135.5,286047014.0,N,0.0,0.0
1480104155.3,286047013.5,N,0.0,0.0
1480104175.2,286047013.7,N,0.0,0.0
1480104195.9,286047013.6,N,0.0,0.0
1480104215.7,286047013.2,N,0.0,0.0
1480104235.6,286047013.3,N,0.0,0.0
1480104255.4,286047012.9,N,0.0,0.0
1480104275.3,286047013.0,N,0.0,0.0
1480104295.1,286047013.8,N,0.0,0.0
1480104296.0,286047013.8,N,0.0,0.0
1480104315.8,286047013.8,N,0.0,0.0
1480104335.7,286047013.3,N,0.0,0.0
1480104355.5,286047013.3,N,0.0,0.0
1480104375.3,286047013.0,N,0.0,0.0
1480104395.2,286047013.3,N,0.0,0.0
1480104415.0,286047013.9,N,0.0,0.0
1480104415.9,286047013.9,N,0.0,0.0
1480104435.8,286047013.8,N,0.0,0.0
1480104455.6,286047013.1,N,0.0,0.0
1480104475.4,286047013.9,N,0.0,0.0
1480104495.3,286047015.6,N,0.0,0.0
1480104515.1,286047012.6,N,0.0,0.0
1480104535.9,286047013.1,N,0.0,0.0
1480104555.7,286047013.1,N,0.0,0.0
1480104575.5,286047015.3,N,0.0,0.0
1480104595.4,286047015.2,N,0.0,0.0
1480104615.2,286047012.9,N,0.0,0.0
1480104635.0,286047012.5,N,0.0,0.0
1480104635.9,286047012.5,N,0.0,0.0
1480104655.8,286047015.0,N,0.0,0.0
1480104675.6,286047014.5,N,0.0,0.0
1480104695.5,286047016.4,N,0.0,0.0
1480104715.3,286047016.0,N,0.0,0.0
1480104735.1,286047016.7,N,0.0,0.0
1480104755.9,286047017.1,N,0.0,0.0
1480104775.7,286047017.1,N,0.0,0.0
1480104795.5,286047014.5,N,0.0,0.0
1480104815.4,286047014.3,N,0.0,0.0
1480104835.2,286047015.3,N,0.0,0.0
1480104855.1,286047015.3,N,0.0,0.0
1480104856.0,286047015.3,N,0.0,0.0
1480104875.8,286047014.8,N,0.0,0.0
1480104895.6,286047014.1,N,0.0,0.0
1480104915.5,286047016.0,N,0.0,0.0
1480104935.3,286047015.9,N,0.0,0.0
1480104955.2,286047017.5,N,0.0,0.0
1480104975.9,286047017.9,N,0.0,0.0
1480104995.7,286047018.7,N,0.0,0.0
1480105015.6,286047016.5,N,0.0,0.0
1480105035.4,286047018.5,N,0.0,0.0
1480105055.2,286047019.8,N,0.0,0.0
1480105075.1,286047019.2,N,0.0,0.0
1480105076.0,286047019.2,N,0.0,0.0
1480105095.8,286047019.0,N,0.0,0.0
1480105115.7,286047019.0,N,0.0,0.0
1480105135.5,286047022.0,N,0.0,0.0
1480105155.3,286047021.7,N,0.0,0.0
1480105175.2,286047020.5,N,0.0,0.0
1480105195.0,286047022.8,N,0.0,0.0
1480105195.9,286047022.8,N,0.0,0.0
1480105215.8,286047022.4,N,0.0,0.0
1480105235.6,286047022.7,N,0.0,0.0
1480105255.4,286047022.1,N,0.0,0.0
1480105275.3,286047024.4,N,0.0,0.0
1480105295.1,286047024.5,N,0.0,0.0
1480105315.9,286047024.7,N,0.0,0.0
1480105335.7,286047024.6,N,0.0,0.0
1480105355.5,286047024.5,N,0.0,0.0
1480105375.4,286047024.3,N,0.0,0.0
1480105395.2,286047023.8,N,0.0,0.0
1480105415.0,286047023.9,N,0.0,0.0
1480105415.9,286047023.9,N,0.0,0.0
1480105435.8,286047025.1,N,0.0,0.0
1480105455.6,286047022.2,N,0.0,0.0
1480105475.5,286047021.0,N,0.0,0.0
1480105495.3,286047023.3,N,0.0,0.0
1480105515.1,286047021.4,N,0.0,0.0
1480105535.9,286047018.9,N,0.0,0.0
1480105555.7,286047019.0,N,0.0,0.0
1480105575.6,286047021.7,N,0.0,0.0
1480105595.4,286047021.1,N,0.0,0.0
1480105615.2,286047021.0,N,0.0,0.0
1480105635.1,286047021.2,N,0.0,0.0
1480105636.0,286047021.2,N,0.0,0.0
1480105655.8,286047020.9,N,0.0,0.0
1480105675.6,286047020.8,N,0.0,0.0
1480105695.5,286047023.6,N,0.0,0.0
1480105715.3,286047021.5,N,0.0,0.0
1480105735.2,286047019.5,N,0.0,0.0
1480105755.9,286047017.3,N,0.0,0.0
1480105775.7,286047017.7,N,0.0,0.0
1480105795.6,286047019.9,N,0.0,0.0
1480105815.4,286047017.9,N,0.0,0.0
1480105835.3,286047018.4,N,0.0,0.0
1480105855.1,286047015.8,N,0.0,0.0
1480105856.0,286047015.8,N,0.0,0.0
1480105875.8,286047017.3,N,0.0,0.0
1480105895.7,286047019.9,N,0.0,0.0
1480105915.5,286047017.4,N,0.0,0.0
1480105935.3,286047020.2,N,0.0,0.0
1480105955.2,286047017.9,N,0.0,0.0
1480105975.0,286047020.4,N,0.0,0.0
1480105975.9,286047020.4,N,0.0,0.0
1480105995.8,286047017.5,N,0.0,0.0
1480106015.6,286047015.7,N,0.0,0.0
1480106035.4,286047016.1,N,0.0,0.0
1480106055.3,286047018.2,N,0.0,0.0
1480106075.1,286047020.3,N,0.0,0.0
1480106095.9,286047021.6,N,0.0,0.0
1480106115.7,286047019.3,N,0.0,0.0
1480106135.5,286047019.6,N,0.0,0.0
1480106155.4,286047021.9,N,0.0,0.0
1480106175.2,286047021.7,N,0.0,0.0
1480106195.0,286047019.1,N,0.0,0.0
1480106195.9,286047019.1,N,0.0,0.0
1480106215.8,286047019.2,N,0.0,0.0
1480106235.6,286047020.3,N,0.0,0.0
1480106255.5,286047019.7,N,0.0,0.0
1480106275.3,286047019.2,N,0.0,0.0
1480106295.1,286047021.1,N,0.0,0.0
1480106315.9,286047023.3,N,0.0,0.0
1480106335.7,286047024.8,N,0.0,0.0
1480106355.5,286047025.1,N,0.0,0.0
1480106375.4,286047025.2,N,0.0,0.0
1480106395.2,286047023.0,N,0.0,0.0
1480106415.1,286047020.6,N,0.0,0.0
1480106416.0,286047020.6,N,0.0,0.0
1480106435.8,286047020.9,N,0.0,0.0
1480106455.6,286047020.7,N,0.0,0.0
1480106475.5,286047023.2,N,0.0,0.0
1480106495.3,286047024.9,N,0.0,0.0
1480106515.2,286047024.4,N,0.0,0.0
1480106535.9,286047024.6,N,0.0,0.0
1480106555.7,286047026.8,N,0.0,0.0
1480106575.6,286047023.7,N,0.0,0.0
1480106595.4,286047024.8,N,0.0,0.0
1480106615.2,286047022.4,N,0.0,0.0
1480106635.1,286047025.2,N,0.0,0.0
1480106636.0,286047025.2,N,0.0,0.0
1480106655.8,286047024.9,N,0.0,0.0
1480106675.7,286047023.9,N,0.0,0.0
1480106695.5,286047026.4,N,0.0,0.0
1480106715.3,286047023.7,N,0.0,0.0
1480106735.2,286047026.1,N,0.0,0.0
1480106755.0,286047026.1,N,0.0,0.0
1480106755.9,286047026.1,N,0.0,0.0
1480106775.8,286047026.1,N,0.0,0.0
1480106795.6,286047025.6,N,0.0,0.0
1480106815.4,286047026.0,N,0.0,0.0
1480106835.3,286047025.6,N,0.0,0.0
1480106855.1,286047026.1,N,0.0,0.0
1480106875.8,286047025.8,N,0.0,0.0
1480106895.7,286047027.7,N,0.0,0.0
1480106915.5,286047028.1,N,0.0,0.0
1480106935.4,286047027.9,N,0.0,0.0
1480106955.2,286047025.5,N,0.0,0.0
1480106975.0,286047027.9,N,0.0,0.0
1480106975.9,286047027.9,N,0.0,0.0
1480106995.8,286047027.6,N,0.0,0.0
1480107015.6,286047027.7,N,0.0,0.0
1480107035.5,286047028.3,N,0.0,0.0
1480107055.3,286047027.9,N,0.0,0.0
1480107075.1,286047028.3,N,0.0,0.0
1480107095.9,286047027.8,N,0.0,0.0
1480107115.7,286047027.9,N,0.0,0.0
1480107135.5,286047027.5,N,0.0,0.0
1480107155.4,286047030.0,N,0.0,0.0
1480107175.2,286047029.3,N,0.0,0.0
1480107195.1,286047028.6,N,0.0,0.0
1480107196.0,286047028.6,N,0.0,0.0
1480107215.8,286047028.7,N,0.0,0.0
1480107235.6,286047029.2,N,0.0,0.0
1480107255.5,286047028.7,N,0.0,0.0
1480107275.3,286047031.0,N,0.0,0.0
1480107295.1,286047031.4,N,0.0,0.0
1480107315.9,286047031.5,N,0.0,0.0
1480107335.7,286047031.5,N,0.0,0.0
1480107355.6,286047030.3,N,0.0,0.0
1480107375.4,286047030.5,N,0.0,0.0
1480107395.2,286047030.1,N,0.0,0.0
1480107415.1,286047030.1,N,0.0,0.0
1480107416.0,286047030.1,N,0.0,0.0
1480107435.8,286047032.8,N,0.0,0.0
1480107455.6,286047032.6,N,0.0,0.0
1480107475.5,286047034.6,N,0.0,0.0
1480107495.3,286047034.8,N,0.0,0.0
1480107515.2,286047034.7,N,0.0,0.0
1480107535.9,286047034.2,N,0.0,0.0
1480107555.7,286047035.7,N,0.0,0.0
1480107575.6,286047033.4,N,0.0,0.0
1480107595.4,286047033.6,N,0.0,0.0
